FW8579 Weather Reports


time (UTC)temp
F
wind
direction
speed
knots
gust
knots
rain 1hr
in
rain 24hr
in
rain mn
in
humidity
%
barometer
mb
20260506050530 51 0.0 0.0 0.00 0.01 0.01 95 1017.5
20260506044534 52 0.0 0.0 0.00 0.01 0.01 95 1017.4
20260506043518 52 0.0 0.0 0.00 0.01 0.01 94 1017.3
20260506042541 53 0.0 0.0 0.00 0.01 0.01 94 1017.3
20260506041526 53 272 0.0 1.7 0.00 0.01 0.01 94 1017.5
20260506040526 53 0.0 0.0 0.00 0.01 0.01 93 1017.3
20260506035550 54 263 0.0 0.9 0.00 0.01 0.01 93 1017.1
20260506034615 54 300 0.0 0.9 0.00 0.01 0.01 92 1017.0
20260506033537 54 287 0.0 1.7 0.00 0.01 0.01 91 1016.7
20260506032538 55 303 0.0 1.7 0.00 0.01 0.01 91 1016.6
20260506031539 55 291 0.0 1.7 0.00 0.01 0.01 90 1016.6
20260506030526 56 346 0.0 1.7 0.00 0.01 0.01 88 1016.4
20260506025528 56 319 0.9 2.6 0.00 0.01 0.01 86 1016.3
20260506024528 57 300 0.9 1.7 0.00 0.01 0.01 83 1016.2
20260506023536 58 333 0.9 2.6 0.00 0.01 0.01 80 1016.2
20260506022537 59 320 0.9 2.6 0.00 0.01 0.01 78 1016.2
20260506021518 59 326 0.9 3.5 0.00 0.01 0.01 78 1016.2
20260506020523 59 342 1.7 3.5 0.00 0.01 0.01 75 1016.1
20260506015546 60 308 1.7 5.2 0.00 0.01 0.01 75 1016.1
20260506014528 61 291 1.7 5.2 0.00 0.01 0.01 72 1016.1
20260506013529 61 337 0.9 3.5 0.00 0.01 0.01 74 1016.0
20260506012529 60 283 1.7 5.2 0.00 0.01 0.01 75 1016.1
20260506011614 60 298 2.6 6.1 0.00 0.01 0.01 74 1016.1
20260506010556 60 332 1.7 3.5 0.00 0.01 0.01 74 1016.0
20260506005518 60 286 2.6 6.1 0.00 0.01 0.01 73 1016.0
20260506004522 61 295 1.7 3.5 0.00 0.01 0.01 70 1016.0
20260506003542 61 314 1.7 7.0 0.00 0.01 0.01 71 1016.1
20260506002526 61 357 0.9 3.5 0.00 0.01 0.01 71 1016.0
20260506001527 61 320 1.7 3.5 0.00 0.01 0.01 70 1016.0
20260506000550 61 269 2.6 6.1 0.00 0.01 0.01 69 1016.1
20260505235556 61 337 1.7 6.1 0.00 0.01 0.01 69 1016.1
20260505234543 61 354 1.7 5.2 0.00 0.01 0.01 69 1016.2
20260505233527 61 318 1.7 5.2 0.00 0.01 0.01 70 1016.1
20260505232531 61 4 2.6 7.8 0.00 0.01 0.01 70 1016.6
20260505231609 61 35 2.6 6.1 0.00 0.01 0.01 71 1016.3
20260505230530 61 285 2.6 7.0 0.00 0.01 0.01 69 1016.2
20260505225537 61 280 3.5 8.7 0.00 0.01 0.01 70 1016.2
20260505224520 60 300 2.6 7.0 0.00 0.01 0.01 71 1016.3
20260505223523 61 272 3.5 7.0 0.00 0.01 0.01 70 1016.2
20260505222546 61 269 3.5 7.0 0.00 0.01 0.01 69 1016.2
20260505221529 61 279 2.6 6.1 0.00 0.01 0.01 70 1016.3
20260505220535 62 268 2.6 7.0 0.00 0.01 0.01 67 1016.3
20260505215518 63 282 1.7 7.0 0.00 0.01 0.01 67 1016.4
20260505214643 62 275 2.6 7.0 0.00 0.01 0.01 69 1016.5
20260505213528 62 319 1.7 7.0 0.00 0.01 0.01 70 1016.5
20260505212535 61 274 2.6 7.0 0.00 0.01 0.01 72 1016.5
20260505211520 61 278 2.6 6.1 0.00 0.01 0.01 73 1016.4
20260505210522 60 277 2.6 5.2 0.00 0.01 0.01 74 1016.4
20260505205545 60 271 1.7 5.2 0.00 0.01 0.01 75 1016.4
20260505204528 59 2 1.7 5.2 0.00 0.01 0.01 77 1016.5
20260505203535 58 302 1.7 6.1 0.00 0.01 0.01 79 1016.7
20260505202520 58 275 1.7 6.1 0.00 0.01 0.01 78 1016.7
20260505201525 58 283 2.6 5.2 0.00 0.01 0.01 80 1016.6
20260505200528 58 275 2.6 6.1 0.00 0.01 0.01 79 1016.5
20260505195533 58 275 1.7 5.2 0.00 0.01 0.01 78 1016.5
20260505194517 58 291 1.7 3.5 0.00 0.01 0.01 79 1016.5
20260505193522 58 267 1.7 5.2 0.00 0.01 0.01 78 1016.3
20260505192546 59 255 1.7 3.5 0.00 0.01 0.01 79 1016.4
20260505191529 58 273 1.7 3.5 0.00 0.01 0.01 78 1016.3
20260505190555 58 300 1.7 3.5 0.00 0.01 0.01 81 1016.2
20260505185536 57 218 1.7 3.5 0.00 0.01 0.01 82 1016.3
20260505184535 57 294 0.9 1.7 0.00 0.01 0.01 84 1016.4
20260505183520 56 301 0.9 2.6 0.00 0.01 0.01 86 1016.5
20260505182522 56 285 1.7 5.2 0.00 0.01 0.01 86 1016.4
20260505181525 57 287 1.7 3.5 0.00 0.01 0.01 86 1016.2
20260505180530 56 271 1.7 3.5 0.00 0.01 0.01 87 1016.2
20260505175534 57 290 1.7 2.6 0.00 0.01 0.01 86 1016.1
20260505174516 57 232 0.9 2.6 0.00 0.01 0.01 86 1016.1
20260505173522 57 288 0.9 2.6 0.00 0.01 0.01 86 1016.0
20260505172525 57 293 0.9 3.5 0.00 0.01 0.01 86 1015.9
20260505171532 56 268 0.9 2.6 0.00 0.01 0.01 86 1015.8
20260505170536 56 184 0.9 2.6 0.00 0.01 0.01 86 1015.7
20260505165541 56 243 0.9 2.6 0.00 0.01 0.01 88 1015.7
20260505164546 56 228 0.9 1.7 0.00 0.01 0.01 88 1015.7
20260505163529 56 212 0.9 2.6 0.00 0.01 0.01 88 1015.7
20260505162534 56 0.0 0.0 0.00 0.01 0.01 84 1015.8
20260505161541 56 203 0.9 2.6 0.00 0.01 0.01 85 1015.7
20260505160525 56 114 0.9 2.6 0.00 0.01 0.01 86 1015.7
20260505152524 55 146 0.0 1.7 0.00 0.01 0.01 93 1015.7
20260505151530 55 0.0 0.0 0.00 0.01 0.01 95 1015.6
20260505150530 55 0.0 0.0 0.00 0.01 0.01 96 1015.6
20260505140520 53 0.0 0.0 0.00 0.01 0.01 98 1015.5
20260505124525 53 124 0.0 0.9 0.00 0.01 0.01 98 1014.9
20260505123551 54 0.0 0.0 0.00 0.01 0.01 98 1014.9
20260505122535 53 0.0 0.0 0.01 0.01 0.01 98 1014.9
20260505121520 53 0.0 0.0 0.01 0.01 0.01 97 1014.7
20260505120523 53 0.0 0.0 0.01 0.01 0.01 97 1014.7
20260505115528 53 0.0 0.0 0.01 0.01 0.01 97 1014.7
20260505114532 53 0.0 0.0 0.01 0.01 0.01 97 1014.7
20260505113535 54 0.0 0.0 0.01 0.01 0.01 96 1014.8
20260505112517 54 0.0 0.0 0.00 0.00 0.00 96 1014.8
20260505111521 54 0.0 0.0 0.00 0.01 0.00 96 1014.7
20260505110523 54 0.0 0.0 0.00 0.01 0.00 95 1014.7
20260505101536 55 178 1.7 3.5 0.00 0.01 0.00 92 1014.5
20260505100518 55 181 1.7 3.5 0.00 0.02 0.00 92 1014.9
20260505095533 55 188 0.9 2.6 0.00 0.02 0.00 92 1014.7
20260505094516 55 227 0.0 1.7 0.00 0.02 0.00 92 1014.8
20260505093521 55 189 0.0 0.9 0.00 0.02 0.00 92 1014.6
20260505092525 55 163 0.0 1.7 0.00 0.02 0.00 92 1014.6
20260505091534 55 168 0.9 1.7 0.00 0.02 0.00 92 1014.4
20260505090541 55 195 0.9 1.7 0.00 0.02 0.00 92 1014.3
20260505085523 55 160 0.9 3.5 0.00 0.02 0.00 91 1014.3
20260505084527 55 139 0.9 2.6 0.00 0.02 0.00 91 1014.3
20260505083550 55 167 0.9 1.7 0.00 0.03 0.00 92 1014.4
20260505082549 55 160 1.7 5.2 0.00 0.03 0.00 91 1014.5
20260505081517 55 181 0.9 1.7 0.00 0.03 0.00 91 1014.5
20260505080545 55 177 1.7 3.5 0.00 0.03 0.00 91 1014.6
20260505075529 55 185 0.9 1.7 0.00 0.03 0.00 91 1014.7
20260505074535 55 164 0.9 1.7 0.00 0.03 0.00 92 1014.6
20260505073522 55 183 0.9 1.7 0.00 0.03 0.00 92 1014.7
20260505072543 55 165 0.9 1.7 0.00 0.03 0.00 92 1014.8
20260505071522 55 149 0.0 1.7 0.00 0.03 0.00 93 1014.7
20260505070525 55 178 0.9 2.6 0.00 0.03 0.00 93 1014.7
20260505065528 55 144 0.9 5.2 0.00 0.04 0.04 93 1014.7
20260505064534 55 182 0.9 2.6 0.00 0.04 0.04 93 1014.7
20260505063603 55 169 0.0 1.7 0.00 0.04 0.04 93 1014.7
20260505062528 55 185 0.0 0.9 0.00 0.04 0.04 93 1014.7
20260505061555 55 157 0.9 1.7 0.00 0.04 0.04 93 1014.8
20260505060518 55 175 0.9 2.6 0.00 0.04 0.04 93 1014.9